CW3782 Weather Reports


time (UTC)temp
C
wind
direction
speed
KPH
gust
KPH
rain 1hr
cm
rain 24hr
cm
rain mn
cm
humidity
%
barometer
mb
20211017153653 16 352 0.0 8.0 0.00 0.13 0.00 49 1017.0
20211017153153 15 356 0.0 0.0 0.00 0.13 0.00 50 1017.0
20211017152652 15 343 0.0 8.0 0.00 0.13 0.00 52 1017.0
20211017151652 15 347 3.2 9.7 0.00 0.13 0.00 50 1017.0
20211017151152 15 354 1.6 11.3 0.00 0.13 0.00 50 1017.1
20211017150652 15 348 0.0 3.2 0.00 0.13 0.00 52 1017.1
20211017150153 15 1 3.2 8.0 0.00 0.13 0.00 51 1017.2
20211017145653 15 355 3.2 8.0 0.00 0.13 0.00 54 1017.3
20211017145153 15 4 1.6 8.0 0.00 0.13 0.00 55 1017.3
20211017144652 15 355 0.0 1.6 0.00 0.13 0.00 56 1017.2
20211017144153 14 310 0.0 8.0 0.00 0.13 0.00 56 1017.1
20211017143652 14 354 0.0 4.8 0.00 0.13 0.00 57 1017.1
20211017143152 14 342 0.0 0.0 0.00 0.13 0.00 59 1017.1
20211017142653 14 286 0.0 0.0 0.00 0.13 0.00 60 1017.1
20211017141653 13 291 0.0 0.0 0.00 0.13 0.00 62 1017.1
20211017140652 13 354 0.0 0.0 0.00 0.13 0.00 64 1017.1
20211017135653 12 353 0.0 0.0 0.00 0.13 0.00 68 1017.2
20211017134653 12 326 0.0 0.0 0.00 0.13 0.00 69 1017.0
20211017134153 12 286 0.0 0.0 0.00 0.13 0.00 70 1016.9
20211017132653 11 343 0.0 0.0 0.00 0.13 0.00 72 1016.9
20211017132153 11 343 0.0 0.0 0.00 0.13 0.00 73 1016.9
20211017131653 11 343 0.0 0.0 0.00 0.13 0.00 73 1016.9
20211017131153 11 343 0.0 0.0 0.00 0.13 0.00 74 1016.9
20211017130152 11 317 0.0 0.0 0.00 0.13 0.00 74 1016.9
20211017125653 10 265 0.0 0.0 0.00 0.13 0.00 74 1016.8
20211017125152 10 311 0.0 0.0 0.00 0.13 0.00 75 1016.6
20211017124152 10 300 0.0 0.0 0.00 0.13 0.00 76 1016.5
20211017123653 10 302 0.0 0.0 0.00 0.13 0.00 76 1016.3
20211017123153 10 311 0.0 0.0 0.00 0.13 0.00 77 1016.3
20211017122653 10 308 0.0 0.0 0.00 0.13 0.00 77 1016.3
20211017121653 10 308 0.0 0.0 0.00 0.13 0.00 77 1016.3
20211017120653 10 308 0.0 0.0 0.00 0.13 0.00 76 1016.1
20211017114653 10 308 0.0 0.0 0.00 0.13 0.00 75 1015.9
20211017114153 10 308 0.0 0.0 0.00 0.13 0.00 75 1015.8
20211017113153 10 308 0.0 0.0 0.00 0.13 0.00 74 1015.8
20211017112653 10 308 0.0 0.0 0.00 0.13 0.00 74 1015.5
20211017112153 10 308 0.0 0.0 0.00 0.13 0.00 74 1015.4
20211017111653 10 308 0.0 0.0 0.00 0.13 0.00 73 1015.4
20211017110653 11 308 0.0 0.0 0.00 0.13 0.00 73 1015.4
20211017110153 11 308 0.0 0.0 0.00 0.13 0.00 73 1015.3
20211017105653 11 311 0.0 0.0 0.00 0.13 0.00 73 1015.3
20211017105153 11 319 0.0 0.0 0.00 0.13 0.00 73 1015.3
20211017104653 11 319 0.0 0.0 0.00 0.13 0.00 72 1015.3
20211017104153 11 319 0.0 0.0 0.00 0.13 0.00 72 1015.3
20211017102153 11 321 0.0 0.0 0.00 0.13 0.00 71 1015.2
20211017101153 11 321 0.0 0.0 0.00 0.13 0.00 71 1015.2
20211017100653 11 321 0.0 0.0 0.00 0.13 0.00 71 1015.2
20211017100154 11 321 0.0 0.0 0.00 0.13 0.00 71 1015.2
20211017095654 11 321 0.0 0.0 0.00 0.13 0.00 70 1015.2
20211017095153 11 321 0.0 0.0 0.00 0.13 0.00 70 1015.2
20211017094154 11 321 0.0 0.0 0.00 0.13 0.00 71 1015.1
20211017093153 11 321 0.0 0.0 0.00 0.13 0.00 70 1015.1
20211017092153 11 321 0.0 0.0 0.00 0.13 0.00 70 1014.8
20211017091653 11 321 0.0 0.0 0.00 0.13 0.00 70 1014.8
20211017090654 12 321 0.0 0.0 0.00 0.13 0.00 69 1014.7
20211017090153 12 321 0.0 0.0 0.00 0.13 0.00 69 1014.7
20211017085654 12 321 0.0 0.0 0.00 0.13 0.00 69 1014.8
20211017085153 12 321 0.0 0.0 0.00 0.13 0.00 69 1014.7
20211017084654 12 321 0.0 0.0 0.00 0.13 0.00 68 1014.7
20211017083654 12 315 0.0 0.0 0.00 0.13 0.00 69 1014.7
20211017083153 12 315 0.0 0.0 0.00 0.13 0.00 68 1014.7
20211017082653 12 312 0.0 0.0 0.00 0.13 0.00 68 1014.7
20211017082153 12 296 0.0 0.0 0.00 0.13 0.00 69 1014.7
20211017081654 12 295 0.0 0.0 0.00 0.13 0.00 69 1014.7
20211017080654 12 294 0.0 0.0 0.00 0.13 0.00 69 1014.7
20211017075654 12 294 0.0 0.0 0.00 0.13 0.00 69 1014.6
20211017075155 12 294 0.0 0.0 0.00 0.13 0.00 70 1014.7
20211017074653 12 294 0.0 0.0 0.00 0.13 0.00 70 1014.7
20211017073653 12 355 0.0 0.0 0.00 0.13 0.00 68 1014.7
20211017073154 12 355 0.0 0.0 0.00 0.13 0.00 68 1014.7
20211017071653 12 355 0.0 0.0 0.00 0.13 0.00 68 1014.7
20211017071153 12 355 0.0 0.0 0.00 0.13 0.00 68 1014.7
20211017070153 13 355 0.0 0.0 0.00 0.13 0.00 68 1014.7
20211017065653 13 355 0.0 0.0 0.00 0.13 0.00 68 1014.7
20211017065154 13 355 0.0 0.0 0.00 0.13 0.00 68 1014.7
20211017064153 13 355 0.0 0.0 0.00 0.13 0.00 68 1014.7
20211017063654 13 355 0.0 0.0 0.00 0.13 0.00 68 1014.6
20211017062654 13 355 0.0 0.0 0.00 0.13 0.00 68 1014.6
20211017062153 13 355 0.0 0.0 0.00 0.13 0.00 68 1014.6
20211017061153 13 355 0.0 0.0 0.00 0.13 0.00 68 1014.5
20211017060654 13 355 0.0 0.0 0.00 0.13 0.00 68 1014.4
20211017060153 13 355 0.0 0.0 0.00 0.13 0.00 68 1014.4
20211017055653 13 355 0.0 0.0 0.00 0.13 0.00 69 1014.3
20211017055154 13 0 0.0 0.0 0.00 0.13 0.00 69 1014.2
20211017054654 13 0 0.0 0.0 0.00 0.13 0.00 68 1014.2
20211017054154 13 0 0.0 0.0 0.00 0.13 0.00 69 1014.2
20211017053654 13 0 0.0 0.0 0.00 0.13 0.00 69 1014.2
20211017053154 13 0 0.0 0.0 0.00 0.13 0.00 68 1014.1
20211017052654 13 0 0.0 0.0 0.00 0.13 0.00 68 1014.1
20211017051653 13 0 0.0 0.0 0.00 0.13 0.00 68 1014.1
20211017051153 13 0 0.0 0.0 0.00 0.13 0.00 68 1014.0
20211017050153 14 0 0.0 0.0 0.00 0.13 0.00 67 1013.9
20211017045653 14 0 0.0 0.0 0.00 0.13 0.13 67 1013.8
20211017045154 14 0 0.0 0.0 0.00 0.13 0.13 67 1013.8
20211017044653 14 0 0.0 0.0 0.00 0.13 0.13 66 1013.8
20211017043654 14 0 0.0 0.0 0.00 0.13 0.13 66 1013.7
20211017043155 15 0 0.0 0.0 0.00 0.13 0.13 65 1013.8
20211017042154 15 0 0.0 0.0 0.00 0.13 0.13 65 1013.8
20211017041653 15 0 0.0 0.0 0.00 0.13 0.13 64 1013.8
20211017034153 15 0 0.0 0.0 0.00 0.13 0.13 62 1014.0
20211017033654 15 0 0.0 0.0 0.00 0.13 0.13 62 1013.9
20211017031654 16 0 0.0 0.0 0.00 0.13 0.13 60 1013.6
20211017030654 16 355 0.0 0.0 0.00 0.13 0.13 60 1013.5
20211017030154 16 355 0.0 0.0 0.00 0.13 0.13 60 1013.5
20211017025654 16 355 0.0 0.0 0.00 0.13 0.13 60 1013.4
20211017025154 16 355 0.0 0.0 0.00 0.13 0.13 60 1013.4
20211017024654 16 355 0.0 0.0 0.00 0.13 0.13 59 1013.3
20211017024153 16 349 0.0 0.0 0.00 0.13 0.13 59 1013.2
20211017023653 16 349 0.0 0.0 0.00 0.13 0.13 59 1013.1
20211017023154 16 349 0.0 0.0 0.00 0.13 0.13 58 1013.1
20211017022653 16 349 0.0 0.0 0.00 0.13 0.13 58 1013.0
20211017022154 17 349 0.0 0.0 0.00 0.13 0.13 57 1013.0
20211017021653 17 349 0.0 0.0 0.00 0.13 0.13 57 1013.0
20211017021153 17 349 0.0 0.0 0.00 0.13 0.13 57 1013.0
20211017020654 17 349 0.0 0.0 0.00 0.13 0.13 56 1012.8
20211017020154 17 349 0.0 0.0 0.00 0.13 0.13 56 1012.7
20211017015654 17 350 0.0 0.0 0.00 0.13 0.13 56 1012.6
20211017015153 17 350 0.0 0.0 0.00 0.13 0.13 56 1012.5
20211017014654 17 350 0.0 0.0 0.00 0.13 0.13 55 1012.5
20211017014153 17 350 0.0 0.0 0.00 0.13 0.13 55 1012.5
20211017013654 17 350 0.0 0.0 0.00 0.13 0.13 56 1012.4
20211017012153 17 347 0.0 0.0 0.00 0.13 0.13 54 1012.2
20211017011153 18 347 0.0 0.0 0.00 0.13 0.13 53 1012.1
20211017010154 18 350 0.0 3.2 0.00 0.13 0.13 54 1011.9
20211017005653 18 348 0.0 0.0 0.00 0.13 0.13 54 1011.9
20211017005154 18 347 0.0 3.2 0.00 0.13 0.13 54 1011.8
20211017003653 18 347 0.0 0.0 0.00 0.13 0.13 56 1011.4
20211017003153 18 331 0.0 0.0 0.00 0.13 0.13 56 1011.4
20211017002654 18 348 0.0 8.0 0.00 0.13 0.13 56 1011.4
20211017002154 18 341 1.6 9.7 0.00 0.13 0.13 56 1011.3
20211017000654 18 345 0.0 8.0 0.00 0.13 0.13 57 1010.9
20211017000153 18 345 3.2 8.0 0.00 0.13 0.13 57 1010.9
20211016235654 18 347 6.4 11.3 0.00 0.13 0.13 59 1010.9
20211016235154 19 337 3.2 11.3 0.00 0.13 0.13 65 1010.8
20211016234654 19 355 0.0 0.0 0.00 0.13 0.13 67 1010.6
20211016233653 19 350 0.0 0.0 0.00 0.13 0.13 67 1010.4
20211016233154 19 350 0.0 0.0 0.00 0.13 0.13 67 1010.3
20211016232654 19 350 0.0 0.0 0.00 0.13 0.13 68 1010.3
20211016232154 19 350 0.0 0.0 0.00 0.13 0.13 69 1009.9
20211016231654 20 355 0.0 0.0 0.00 0.13 0.13 69 1009.8
20211016231154 20 353 0.0 0.0 0.00 0.13 0.13 69 1009.8
20211016230654 20 355 0.0 0.0 0.00 0.13 0.13 69 1009.8
20211016230154 20 355 0.0 0.0 0.00 0.13 0.13 69 1009.5
20211016225654 20 355 0.0 0.0 0.00 0.13 0.13 69 1009.4
20211016225154 20 355 0.0 0.0 0.00 0.13 0.13 69 1009.3
20211016224654 20 347 0.0 0.0 0.00 0.13 0.13 69 1009.3
20211016223654 20 356 0.0 0.0 0.00 0.13 0.13 70 1008.9
20211016221154 20 348 0.0 9.7 0.00 0.13 0.13 72 1008.2
20211016220654 20 349 4.8 11.3 0.00 0.13 0.13 74 1008.2
20211016220154 20 349 1.6 11.3 0.00 0.13 0.13 77 1008.2
20211016215654 21 350 4.8 19.3 0.00 0.13 0.13 81 1008.1
20211016215154 21 347 0.0 0.0 0.00 0.13 0.13 84 1007.9
20211016214654 21 347 0.0 0.0 0.00 0.13 0.13 84 1007.6
20211016214154 21 347 0.0 0.0 0.03 0.13 0.13 85 1007.4
20211016213154 22 346 0.0 0.0 0.03 0.13 0.13 85 1007.2
20211016212154 22 355 0.0 0.0 0.03 0.13 0.13 86 1007.1
20211016211654 22 351 0.0 0.0 0.08 0.13 0.13 86 1007.1
20211016210153 22 350 0.0 0.0 0.13 0.13 0.13 85 1006.6
20211016205654 22 350 0.0 0.0 0.13 0.13 0.13 84 1006.8
20211016205154 23 350 0.0 0.0 0.13 0.13 0.13 84 1006.7
20211016204654 23 350 0.0 0.0 0.13 0.13 0.13 83 1006.7
20211016204154 23 350 0.0 0.0 0.10 0.10 0.10 78 1006.6
20211016203654 24 350 0.0 0.0 0.10 0.10 0.10 77 1006.6
20211016203155 24 350 0.0 0.0 0.10 0.10 0.10 76 1006.5
20211016202654 25 350 0.0 0.0 0.10 0.10 0.10 75 1006.5
20211016201654 25 350 0.0 0.0 0.05 0.05 0.05 71 1006.1
20211016200655 27 345 0.0 8.0 0.00 0.00 0.00 67 1006.1
20211016200154 27 287 0.0 8.0 0.00 0.00 0.00 64 1006.0
20211016195154 28 289 0.0 1.6 0.00 0.00 0.00 62 1005.3
20211016194654 28 259 0.0 0.0 0.00 0.00 0.00 63 1004.9
20211016193654 28 258 0.0 0.0 0.00 0.00 0.00 63 1004.9
20211016192654 28 301 0.0 8.0 0.00 0.00 0.00 61 1004.9
20211016192154 28 278 0.0 0.0 0.00 0.00 0.00 59 1004.9
20211016191654 28 293 0.0 0.0 0.00 0.00 0.00 61 1004.9
20211016190653 28 308 0.0 0.0 0.00 0.00 0.00 61 1005.0
20211016190154 28 274 0.0 0.0 0.00 0.00 0.00 60 1005.0
20211016185655 28 275 0.0 0.0 0.00 0.00 0.00 60 1005.0
20211016185154 28 338 0.0 0.0 0.00 0.00 0.00 60 1005.0
20211016184655 28 26 0.0 0.0 0.00 0.00 0.00 60 1005.0
20211016182154 28 260 0.0 0.0 0.00 0.00 0.00 60 1005.4
20211016181655 28 294 0.0 0.0 0.00 0.00 0.00 57 1005.4
20211016181154 29 331 0.0 4.8 0.00 0.00 0.00 56 1005.4
20211016180654 29 283 0.0 0.0 0.00 0.00 0.00 56 1005.5
20211016180154 29 267 1.6 8.0 0.00 0.00 0.00 56 1005.5
20211016175654 28 260 0.0 0.0 0.00 0.00 0.00 57 1005.5
20211016175154 29 243 0.0 4.8 0.00 0.00 0.00 56 1005.5
20211016174655 28 263 0.0 9.7 0.00 0.00 0.00 57 1005.5
20211016173154 28 277 0.0 0.0 0.00 0.00 0.00 60 1005.9
20211016172654 28 321 1.6 20.9 0.00 0.00 0.00 60 1006.0
20211016171654 28 293 0.0 0.0 0.00 0.00 0.00 62 1006.2
20211016171155 28 279 0.0 0.0 0.00 0.00 0.00 61 1006.4
20211016170655 28 276 0.0 0.0 0.00 0.00 0.00 64 1006.5
20211016170154 28 140 0.0 0.0 0.00 0.00 0.00 62 1006.5
20211016165654 28 260 0.0 0.0 0.00 0.00 0.00 64 1006.6
20211016165155 28 268 0.0 0.0 0.00 0.00 0.00 64 1006.7
20211016164655 27 150 0.0 0.0 0.00 0.00 0.00 64 1006.7
20211016164155 27 171 0.0 0.0 0.00 0.00 0.00 64 1006.9
20211016163655 27 309 0.0 0.0 0.00 0.00 0.00 66 1007.1
20211016162655 27 247 0.0 0.0 0.00 0.00 0.00 66 1007.1
20211016162155 26 46 0.0 0.0 0.00 0.00 0.00 67 1007.2
20211016161654 26 146 0.0 0.0 0.00 0.00 0.00 70 1007.3
20211016161154 25 277 0.0 0.0 0.00 0.00 0.00 72 1007.4
20211016160654 25 189 0.0 0.0 0.00 0.00 0.00 73 1007.4
20211016160154 25 273 0.0 0.0 0.00 0.00 0.00 74 1007.6
20211016155654 25 206 0.0 0.0 0.00 0.00 0.00 75 1007.6